Regional Weather Roundup
Issued by NWS

Home | Current Version | Previous Version | Graphics & Text | Print | Product List | Glossary On
Versions: 1 2 3 4 5 6 7 8 9 10 11 12 13 14 15 16 17 18 19 20 21 22 23 24 25 26 27 28 29 30 31 32 33 34 35 36 37 38 39 40 41 42 43 44 45 46 47 48 49 50
000
ASUS43 KLOT 191910
RWRIL

ILLINOIS REGIONAL WEATHER ROUNDUP
NATIONAL WEATHER SERVICE CHICAGO/ROMEOVILLE IL
100 PM CST FRI DEC 19 2014

NOTE: "FAIR" INDICATES FEW OR NO CLOUDS BELOW 12,000 FEET WITH NO
SIGNIFICANT WEATHER AND/OR OBSTRUCTIONS TO VISIBILITY.

* THESE STATIONS ARE NOT UNDER NWS QUALITY CONTROL. THEY ALSO MAY NOT
  REPORT WEATHER SUCH AS PRECIPITATION OR FOG.

ILZ001-002-007-009-015-016-024-192000-
NORTHWEST ILLINOIS

CITY           SKY/WX    TMP DP  RH WIND       PRES   REMARKS
MOLINE         SUNNY     31  20  63 CALM      30.27F
STERLING*      CLOUDY    28  19  69 N3        30.28F
SAVANNA*       CLOUDY    30  20  67 N3        30.28F
$$

ILZ003-004-008-010-011-017-018-192000-
NORTH CENTRAL ILLINOIS

CITY           SKY/WX    TMP DP  RH WIND       PRES   REMARKS
ROCKFORD       CLOUDY    28  21  75 N3        30.30F
FREEPORT*      CLOUDY    26  22  82 CALM      30.29F
ROCHELLE*      CLOUDY    28  22  76 W5        30.28F WCI  23
DE KALB*       CLOUDY    28  23  80 N6        30.27F WCI  22
PERU*          PTSUNNY   32  23  69 CALM      30.28F
$$

ILZ005-006-012>014-019>023-192000-
NORTHEAST ILLINOIS

CITY           SKY/WX    TMP DP  RH WIND       PRES   REMARKS
CHICAGO-OHARE  CLOUDY    30  21  69 N6        30.27F WCI  24
CHICAGO-MIDWAY CLOUDY    34  23  64 CALM      30.28F
AURORA         CLOUDY    33  22  63 CALM      30.27F
LANSING*       CLOUDY    32  24  71 CALM      30.28S
JOLIET*        CLOUDY    32  22  66 CALM      30.27F
WAUKEGAN       CLOUDY    29  20  69 W3        30.27F
DUPAGE AIRPORT CLOUDY    32  21  64 CALM      30.26F
KANKAKEE*      CLOUDY    31  25  77 CALM      30.28F
WHEELING       CLOUDY    30  21  69 NW7       30.29F WCI  23
MORRIS*        PTSUNNY   33  25  73 CALM      30.26F
ROMEOVILLE*    CLOUDY    32  22  67 SE3       30.27F
NORTHERLY ISL    N/A     33  22  64 W5          N/A  WCI  29
$$

LMZ740>746-192000-
SOUTHERN LAKE MICHIGAN

STATION/POSITION SKY/WX   TEMP    WIND        PRES    VSBY  WAVE
                          AIR SEA DIR/SP/G                  HT/PER
                          (F)     (DEG/KT/KT) (MB)    (MI)  (FT/S)
WAUKEGAN HARBOR            29     290/  1/  3   N/A
HARRISON CRIB              31     280/  4/  6   N/A
BURNHAM HARBOR             33     280/  3/  8   N/A
CALUMET HARBOR             33     270/  5/  8 1023.8F
$$

ILZ025>027-034>036-040-047-049-050-058-095>099-192000-
WEST-CENTRAL ILLINOIS

CITY           SKY/WX    TMP DP  RH WIND       PRES   REMARKS
QUINCY         CLOUDY    32  24  72 CALM      30.27S
GALESBURG*     SUNNY     32  20  62 CALM      30.27S
MACOMB*        SUNNY     33  24  71 N3        30.30F
JACKSONVILLE*  CLOUDY    35  26  71 E5        30.28F WCI  31
PITTSFIELD*    CLOUDY    33  26  74 E3        30.28F
$$

ILZ028>032-037-038-041>044-048-051>054-059>061-192000-
CENTRAL ILLINOIS

CITY           SKY/WX    TMP DP  RH WIND       PRES   REMARKS
PONTIAC        SUNNY     32  23  70 CALM      30.28F
BLOOMINGTON    MOSUNNY   30  22  72 CALM      30.27F
DECATUR        SUNNY     33  22  63 NE3       30.28F
PEORIA         SUNNY     34  19  54 NW5       30.28F WCI  30
LACON*         SUNNY     30  19  64 CALM      30.27F
LINCOLN*       SUNNY     33  23  68 CALM      30.29F
SPRINGFIELD    CLOUDY    35  23  61 CALM      30.28F
TAYLORVILLE    SUNNY     32  23  69 N5        30.27F WCI  27
$$

ILZ033-039-045-046-055>057-062-063-192000-
EAST-CENTRAL ILLINOIS

CITY           SKY/WX    TMP DP  RH WIND       PRES   REMARKS
CHAMPAIGN      SUNNY     32  22  66 S5        30.27F WCI  27
DANVILLE*      CLOUDY    29  24  79 CALM      30.25F
RANTOUL*       SUNNY     34  24  68 CALM      30.26F
MATTOON        SUNNY     33  22  63 E7        30.25F WCI  27
PARIS*         PTSUNNY   33  26  72 CALM      30.28F
$$

ILZ079-100>102-192000-
SOUTHWEST ILLINOIS

CITY           SKY/WX    TMP DP  RH WIND       PRES   REMARKS
BELLEVILLE     CLOUDY    35  29  79 CALM      30.29F
CAHOKIA*       CLOUDY    37  28  70 SE5       30.30R WCI  33
SPARTA*        CLOUDY    34  28  78 CALM      30.31S
$$

ILZ064>066-069>071-074>076-080>082-084>086-088>090-092>094-192000-
SOUTH-CENTRAL ILLINOIS

CITY           SKY/WX    TMP DP  RH WIND       PRES   REMARKS
CARBONDALE     CLOUDY    37  28  70 CALM      30.30R
CAIRO*         CLOUDY    39  30  69 CALM      30.30R
EFFINGHAM*     MOSUNNY   34  20  56 CALM      30.29F
MARION         CLOUDY    37  28  70 N6        30.30R WCI  33
MT. VERNON     CLOUDY    36  23  60 CALM      30.29S
CENTRALIA*     CLOUDY    35  23  62 CALM      30.28F
SALEM*         PTSUNNY   37  25  62 CALM      30.29R
METROPOLIS*    CLOUDY    40  31  71 CALM      30.29R
$$

ILZ067-068-072-073-078-083-087-091-192000-
SOUTHEAST ILLINOIS

CITY           SKY/WX    TMP DP  RH WIND       PRES   REMARKS
LAWRENCEVILLE  PTSUNNY   34  24  67 CALM      30.28F
FLORA*         SUNNY     35  24  65 CALM      30.29S
FAIRFIELD*     SUNNY     35  24  63 N3        30.27F
HARRISBURG*    CLOUDY    37  26  66 N3        30.30R
ROBINSON*      SUNNY     34  23  64 NE5       30.28F WCI  30
CARMI*         MOSUNNY   37  27  67 CALM      30.28F
$$

ABBREVIATIONS USED IN REMARKS
   TC - TEMPERATURE IN CELSIUS
  WCI - WIND CHILL INDEX
   HX - HEAT INDEX
  VSB - VISIBILITY
$$



USA.gov is the U.S. government's official web portal to all federal, state and local government web resources and services.